EW7833 Weather Reports


Display with metric or nautical units.
time (UTC)temp
F
wind
direction
speed
MPH
gust
MPH
rain 1hr
in
rain 24hr
in
rain mn
in
humidity
%
barometer
mb
20260504000012 49 239 1.0 7.0 0.13 0.13 0.13 91 1002.9
20260503234512 50 232 11.0 14.0 0.10 0.10 0.10 88 1003.3
20260503233010 51 243 3.0 7.0 0.08 0.08 0.08 86 1003.6
20260503231516 53 315 0.0 5.0 0.03 0.03 0.03 81 1003.8
20260503230009 56 245 7.0 14.0 0.00 0.00 0.00 70 1002.9
20260503224508 57 252 13.0 20.0 0.00 0.00 0.00 67 1002.6
20260503223015 57 217 7.0 15.0 0.00 0.00 0.00 69 1002.2
20260503221506 57 221 13.0 19.0 0.00 0.00 0.00 65 1002.3
20260503220004 57 244 11.0 16.0 0.00 0.00 0.00 67 1002.3
20260503214600 57 228 15.0 21.0 0.00 0.00 0.00 66 1002.4
20260503213128 57 207 9.0 18.0 0.00 0.00 0.00 67 1002.4
20260503211618 57 233 11.0 17.0 0.00 0.00 0.00 66 1002.8
20260503210051 56 223 11.0 17.0 0.00 0.00 0.00 68 1003.0
20260503204602 56 237 13.0 18.0 0.00 0.00 0.00 70 1003.3
20260503203046 56 221 14.0 19.0 0.00 0.00 0.00 65 1003.5
20260503201545 56 246 16.0 21.0 0.00 0.00 0.00 66 1004.0
20260503200043 56 228 14.0 20.0 0.00 0.00 0.00 65 1004.1
20260503194542 56 222 14.0 20.0 0.00 0.00 0.00 66 1004.3
20260503193041 56 241 15.0 20.0 0.00 0.00 0.00 65 1004.4
20260503191553 56 240 14.0 18.0 0.00 0.00 0.00 66 1004.6
20260503190036 55 231 13.0 19.0 0.00 0.00 0.00 66 1004.9
20260503184530 55 236 12.0 17.0 0.00 0.00 0.00 67 1005.1
20260503183032 53 238 8.0 16.0 0.00 0.00 0.00 72 1005.2
20260503181523 52 224 11.0 16.0 0.00 0.00 0.00 73 1005.6
20260503180029 52 243 10.0 13.0 0.00 0.00 0.00 76 1005.6
20260503174522 51 236 7.0 13.0 0.00 0.00 0.00 79 1005.7
20260503173016 50 249 8.0 13.0 0.00 0.00 0.00 80 1005.9
20260503171517 50 243 10.0 13.0 0.00 0.00 0.00 82 1006.1
20260503090106 30 98 0.0 0.0 0.00 0.00 0.00 91 1010.1
20260503081558 28 150 0.0 0.0 0.00 0.00 0.00 91 1010.8
20260503071604 28 91 0.0 0.0 0.00 0.00 0.00 90 1011.5
20260503054535 30 91 0.0 0.0 0.00 0.00 0.00 89 1012.7
20260503053029 29 101 0.0 0.0 0.00 0.00 0.00 89 1012.9
20260503051540 30 101 0.0 0.0 0.00 0.00 0.00 89 1012.8
20260503050023 30 101 0.0 0.0 0.00 0.00 0.00 89 1012.9
20260503044521 30 101 0.0 0.0 0.00 0.00 0.00 88 1013.1
20260503043022 31 101 0.0 0.0 0.00 0.00 0.00 85 1013.3
20260503041526 32 101 0.0 0.0 0.00 0.00 0.00 84 1013.4
20260503040016 31 101 0.0 0.0 0.00 0.00 0.00 82 1013.5
20260503034512 33 101 0.0 0.0 0.00 0.00 0.00 78 1013.6
20260503033010 32 101 0.0 0.0 0.00 0.00 0.00 80 1013.7
20260503031509 33 101 0.0 0.0 0.00 0.00 0.00 76 1013.9
20260503030010 34 101 0.0 0.0 0.00 0.00 0.00 74 1014.1
20260503024508 35 102 0.0 0.0 0.00 0.00 0.00 71 1014.2
20260503023007 36 103 0.0 0.0 0.00 0.00 0.00 68 1014.3
20260503021510 38 77 0.0 0.0 0.00 0.00 0.00 67 1014.3
20260503020006 42 231 3.0 5.0 0.00 0.00 0.00 64 1014.3
20260503014507 42 232 1.0 4.0 0.00 0.00 0.00 62 1014.2
20260503013011 42 255 2.0 4.0 0.00 0.00 0.00 65 1014.1
20260503011505 43 250 4.0 7.0 0.00 0.00 0.00 62 1014.0
20260503010005 43 247 4.0 7.0 0.00 0.00 0.00 64 1014.0
20260503004505 44 233 5.0 8.0 0.00 0.00 0.00 61 1014.0
20260503003002 44 243 5.0 8.0 0.00 0.00 0.00 57 1013.9
20260503001503 45 252 5.0 9.0 0.00 0.00 0.00 53 1014.0